Regional Weather Roundup
Issued by NWS Binghamton, NY

Home | Current Version | Previous Version | Text Only | Print | Product List | Glossary On
Versions: 1 2 3 4 5 6 7 8 9 10 11 12 13 14 15 16 17 18 19 20 21 22 23 24 25 26 27 28 29 30 31 32 33 34 35 36 37 38 39 40 41 42 43 44 45 46 47 48 49 50
000
ASUS41 KBGM 170310
RWRBGM
RWRBGM
BINGHAMTON REGIONAL WEATHER ROUNDUP
NATIONAL WEATHER SERVICE BINGHAMTON NY
1100 PM EDT TUE SEP 16 2014

Note: "fair" indicates few or no clouds below 12,000 feet with no
significant weather and/or obstructions to visibility.

* = Station(s) that does not report precipitation, such as rain,
snow, etc, also no thunder or fog.

!NYZ009-015>018-022>025-036-037-044>046-055>057-062-170400
...CENTRAL NEW YORK...

CITY           SKY/WX    TMP DP  RH WIND       PRES   REMARKS
BINGHAMTON     CLEAR     50  44  80 N6        30.06R
CORTLAND       FOG       43  43 100 CALM      30.08R VSB 1
DANSVILLE      PTCLDY    48  45  89 SE7       30.08S
ELMIRA         CLEAR     47  46  97 W5        30.06S
ITHACA         CLEAR     46  45  97 E3        30.07S
HAMILTON       CLEAR     45  43  93 CALM      30.06R
MONTICELLO     CLEAR     48  46  93 CALM      30.07R
NORWICH        CLEAR     43  43 100 CALM      30.07S
PENN YAN       CLEAR     52  47  83 SW6       30.06S
ROME           CLEAR     46  44  93 NE3       30.05S
SIDNEY         MOCLDY    50  50 100 CALM      30.07S FOG
SYRACUSE       PTCLDY    51  47  86 S3        30.04S
$$

!PAZ038>040-043-044-047-048-072-170400
...NORTHEAST PENNSYLVANIA...

CITY           SKY/WX    TMP DP  RH WIND       PRES   REMARKS
HAZLETON       CLOUDY    50  50 100 CALM      30.08F
SCRANTON       CLEAR     50  46  86 E6        30.05S
TOWANDA*       CLEAR     48  48 100 CALM      30.08S
$$
&&
KEY
WCI = WIND CHILL INDEX
VSB = VISIBILITY
HX  = HEAT INDEX
$$



USA.gov is the U.S. government's official web portal to all federal, state and local government web resources and services.